Weather History for Chillicothe, MO

Change the Weather History Date:

Thursday, April 4, 2013

  Actual Average (KIRK) Record (KIRK)
Temperature  
Mean Temperature 48 °F 48 °F  
Max Temperature 64 °F 59 °F 85 °F (1942)
Min Temperature 33 °F 37 °F 19 °F (2002)
Degree Days  
Heating Degree Days 16 17  
Month to date heating degree days 70  
Since 1 July heating degree days 5357  
Cooling Degree Days 0 0  
Month to date cooling degree days 0  
Year to date cooling degree days 0  
Moisture  
Dew Point 28 °F    
Average Humidity 52    
Maximum Humidity 80    
Minimum Humidity 21    
Precipitation  
Precipitation 0.00 in 0.06 in 2.31 in (1934)
Month to date precipitation 0.26  
Year to date precipitation 5.61  
Sea Level Pressure  
Sea Level Pressure 30.17 in    
Wind  
Wind Speed 1 mph (NW)    
Max Wind Speed 6 mph    
Max Gust Speed -    
T = Trace of Precipitation, MM = Missing Value Source: NWS Daily Summary

Daily Weather History Graph

Daily Weather History Graph

Search for Another Location

Airport:

Trip Planner

Search our weather history database for the weather conditions in past years. The results will help you decide how hot, cold, wet, or windy it might be!

Date:

Astronomy

Apr. 04, 2013 Rise Set
Actual Time 6:53 AM CDT 7:41 PM CDT
Civil Twilight 6:25 AM CDT 8:09 PM CDT
Nautical Twilight 5:53 AM CDT 8:41 PM CDT
Astronomical Twilight 5:19 AM CDT 9:15 PM CDT
Moon 3:19 AM CDT (4/4) 2:01 PM CDT (4/4)
Length of Visible Light 13h 43m
Length of Day
12h 48m
Waning Crescent, 33% of the Moon is Illuminated
Apr 4
Waning Crescent
Apr 10
New
Apr 18
First Quarter
Apr 25
Full
May 2
Last Quarter

Hourly Weather History & Observations

Time (CDT) Temp. Dew Point Humidity Pressure Visibility Wind Dir Wind Speed Gust Speed Precip Events Conditions
12:52 AM 34.0 °F 23.0 °F 64% 30.29 in - Calm Calm - N/A   Unknown
1:52 AM 35.1 °F 27.0 °F 72% 30.28 in - Calm Calm - N/A   Unknown
2:52 AM 35.1 °F 28.0 °F 76% 30.26 in - Calm Calm - N/A   Unknown
3:52 AM 33.1 °F 26.1 °F 75% 30.25 in - Calm Calm - N/A   Unknown
4:52 AM 33.1 °F 26.1 °F 75% 30.23 in - Calm Calm - N/A   Unknown
5:52 AM 35.1 °F 25.0 °F 67% 30.24 in - Calm Calm - N/A   Unknown
6:52 AM 35.1 °F 27.0 °F 72% 30.24 in - Calm Calm - N/A   Unknown
7:52 AM 35.1 °F 26.1 °F 70% 30.24 in - Calm Calm - N/A   Unknown
8:52 AM 43.0 °F 26.1 °F 51% 30.22 in - Calm Calm - N/A   Unknown
9:52 AM 48.9 °F 27.0 °F 43% 30.20 in - Variable 3.5 mph - N/A   Unknown
10:52 AM 52.0 °F 26.1 °F 37% 30.20 in - NW 4.6 mph - N/A   Unknown
11:52 AM 54.0 °F 25.0 °F 33% 30.18 in - Calm Calm - N/A   Unknown
12:52 PM 57.0 °F 24.1 °F 28% 30.16 in - Calm Calm - N/A   Unknown
1:52 PM 60.1 °F 26.1 °F 27% 30.14 in - North - - N/A   Unknown
2:52 PM 60.1 °F 26.1 °F 27% 30.11 in - Calm Calm - N/A   Unknown
3:52 PM 62.1 °F 25.0 °F 24% 30.09 in - Calm Calm - N/A   Unknown
4:52 PM 63.0 °F 21.9 °F 21% 30.07 in - Variable 3.5 mph - N/A   Unknown
5:52 PM 64.0 °F 26.1 °F 24% 30.07 in - Variable 5.8 mph - N/A   Unknown
6:52 PM 62.1 °F 27.0 °F 26% 30.07 in - WNW 4.6 mph - N/A   Unknown
7:52 PM 55.0 °F 35.1 °F 47% 30.08 in - Calm Calm - N/A   Unknown
8:52 PM 46.9 °F 34.0 °F 61% 30.09 in - Calm Calm - N/A   Unknown
9:52 PM 45.0 °F 35.1 °F 68% 30.10 in - Calm Calm - N/A   Unknown
10:52 PM 43.0 °F 37.0 °F 80% 30.10 in - Calm Calm - N/A   Unknown
11:52 PM 41.0 °F 33.1 °F 73% 30.12 in - North - - N/A   Unknown